,,PA_Meas_PMT16A,,PR_Meas_QMR101_102,,RH_Meas_QMH101,,SR_Meas_QMS101,,TA_Meas_QMH101,,GenWind,,GenWind,
time,status,PA,status,PR,status,RH,status,SR,status,TA,status,DirAvg,status,SpdAvg,
2010-12-06, 00:00:04,VALID,915.253,VALID,0,VALID,88.8204,VALID,0,VALID,19.9368,VALID,8,VALID,0,
2010-12-06, 00:01:04,VALID,915.238,VALID,0,VALID,88.0505,VALID,0,VALID,19.9368,VALID,8,VALID,0.25,
2010-12-06, 00:02:04,VALID,915.244,VALID,0,VALID,87.959,VALID,0,VALID,19.9368,VALID,8,VALID,0,
2010-12-06, 00:03:04,VALID,915.221,VALID,0,VALID,87.837,VALID,0,VALID,19.9563,VALID,8,VALID,0,
2010-12-06, 00:04:04,VALID,915.23,VALID,0,VALID,88.607,VALID,0.107441,VALID,19.9758,VALID,8,VALID,0.153125,
2010-12-06, 00:05:04,VALID,915.244,VALID,0,VALID,89.6285,VALID,0,VALID,19.9173,VALID,8,VALID,0.371875,
2010-12-06, 00:06:04,VALID,915.227,VALID,0,VALID,89.8953,VALID,0,VALID,19.8003,VALID,8,VALID,0.430469,
2010-12-06, 00:07:04,VALID,915.201,VALID,0,VALID,90.4899,VALID,0,VALID,19.7223,VALID,8,VALID,0.291406,
2010-12-06, 00:08:04,VALID,915.202,VALID,0,VALID,90.7568,VALID,0,VALID,19.6443,VALID,8,VALID,0.271094,
2010-12-06, 00:09:04,VALID,915.21,VALID,0,VALID,90.6577,VALID,0,VALID,19.6248,VALID,8,VALID,0.3125,
2010-12-06, 00:10:04,VALID,915.173,VALID,0,VALID,90.7568,VALID,0,VALID,19.6233,VALID,8,VALID,0.0628906,
2010-12-06, 00:11:04,VALID,915.155,VALID,0,VALID,90.7339,VALID,0,VALID,19.6443,VALID,8,VALID,0.220313,
2010-12-06, 00:12:04,VALID,915.156,VALID,0,VALID,90.8635,VALID,0,VALID,19.6428,VALID,8,VALID,0,
2010-12-06, 00:13:04,VALID,915.146,VALID,0,VALID,90.9169,VALID,0,VALID,19.6443,VALID,8,VALID,0,
2010-12-06, 00:14:04,VALID,915.141,VALID,0,VALID,90.8101,VALID,0,VALID,19.6248,VALID,7,VALID,0,
2010-12-06, 00:15:04,VALID,915.096,VALID,0,VALID,90.5967,VALID,0,VALID,19.6443,VALID,8,VALID,0,
2010-12-06, 00:16:04,VALID,915.096,VALID,0,VALID,90.7034,VALID,0,VALID,19.6443,VALID,8,VALID,0,
2010-12-06, 00:17:04,VALID,915.101,VALID,0,VALID,90.9702,VALID,0,VALID,19.6428,VALID,8,VALID,0,
2010-12-06, 00:18:04,VALID,915.1,VALID,0,VALID,90.772,VALID,0,VALID,19.6623,VALID,8,VALID,0,
2010-12-06, 00:19:04,VALID,915.091,VALID,0,VALID,90.0859,VALID,0,VALID,19.6833,VALID,8,VALID,0,
2010-12-06, 00:20:04,VALID,915.061,VALID,0,VALID,89.9182,VALID,0,VALID,19.7613,VALID,8,VALID,0,
2010-12-06, 00:21:04,VALID,915.033,VALID,0,VALID,89.9182,VALID,0,VALID,19.7613,VALID,8,VALID,0,
2010-12-06, 00:22:04,VALID,915.054,VALID,0,VALID,90.1088,VALID,0,VALID,19.7613,VALID,8,VALID,0.444922,
2010-12-06, 00:23:04,VALID,915.043,VALID,0,VALID,90.124,VALID,0,VALID,19.7013,VALID,8,VALID,0.304688,
2010-12-06, 00:24:04,VALID,915.061,VALID,0,VALID,89.9868,VALID,0,VALID,19.7418,VALID,8,VALID,0,
2010-12-06, 00:25:04,VALID,915.034,VALID,0,VALID,90.063,VALID,0,VALID,19.7418,VALID,8,VALID,0,
2010-12-06, 00:26:04,VALID,915.042,VALID,0,VALID,90.1012,VALID,0,VALID,19.7613,VALID,8,VALID,0,
2010-12-06, 00:27:04,VALID,915.032,VALID,0,VALID,90.1393,VALID,0,VALID,19.7418,VALID,8,VALID,0,
2010-12-06, 00:28:04,VALID,915.021,VALID,0,VALID,90.2917,VALID,0,VALID,19.7418,VALID,8,VALID,0,
2010-12-06, 00:29:04,VALID,915.043,VALID,0,VALID,90.2536,VALID,0,VALID,19.6818,VALID,8,VALID,0,
2010-12-06, 00:30:04,VALID,914.998,VALID,0,VALID,90.368,VALID,0,VALID,19.6248,VALID,8,VALID,0.243359,
2010-12-06, 00:31:04,VALID,915.02,VALID,0,VALID,90.6653,VALID,0,VALID,19.5858,VALID,8,VALID,0.900391,
2010-12-06, 00:32:04,VALID,914.995,VALID,0,VALID,91.1456,VALID,0,VALID,19.4883,VALID,8,VALID,0.889063,
2010-12-06, 00:33:04,VALID,914.978,VALID,0,VALID,91.2218,VALID,0,VALID,19.4688,VALID,8,VALID,0.532422,
2010-12-06, 00:34:04,VALID,914.972,VALID,0,VALID,91.4048,VALID,0,VALID,19.4688,VALID,8,VALID,0,
2010-12-06, 00:35:04,VALID,914.999,VALID,0,VALID,91.3819,VALID,0,VALID,19.4883,VALID,8,VALID,0,
2010-12-06, 00:36:04,VALID,915.01,VALID,0,VALID,91.359,VALID,0,VALID,19.4688,VALID,8,VALID,0.224219,
2010-12-06, 00:37:04,VALID,914.996,VALID,0,VALID,91.1608,VALID,0,VALID,19.4688,VALID,8,VALID,0,
2010-12-06, 00:38:04,VALID,915.005,VALID,0,VALID,91.0007,VALID,0,VALID,19.4883,VALID,8,VALID,0,
2010-12-06, 00:39:04,VALID,914.965,VALID,0,VALID,91.077,VALID,0,VALID,19.5078,VALID,8,VALID,0,
2010-12-06, 00:40:04,VALID,914.939,VALID,0,VALID,90.4976,VALID,0,VALID,19.5468,VALID,8,VALID,0.307422,
2010-12-06, 00:41:04,VALID,914.939,VALID,0,VALID,90.3222,VALID,0,VALID,19.6053,VALID,8,VALID,0.147266,
2010-12-06, 00:42:04,VALID,914.952,VALID,0,VALID,90.1774,VALID,0,VALID,19.6248,VALID,8,VALID,0.189844,
2010-12-06, 00:43:04,VALID,914.928,VALID,0,VALID,90.4595,VALID,0,VALID,19.6443,VALID,8,VALID,0,
2010-12-06, 00:44:04,VALID,914.884,VALID,0,VALID,90.2917,VALID,0,VALID,19.6443,VALID,8,VALID,0,
2010-12-06, 00:45:04,VALID,914.89,VALID,0,VALID,90.5662,VALID,0,VALID,19.6248,VALID,8,VALID,0,
2010-12-06, 00:46:04,VALID,914.868,VALID,0,VALID,90.4823,VALID,0,VALID,19.6248,VALID,8,VALID,0.377734,
2010-12-06, 00:47:04,VALID,914.838,VALID,0,VALID,90.4823,VALID,0,VALID,19.6248,VALID,8,VALID,0.546484,
2010-12-06, 00:48:04,VALID,914.851,VALID,0,VALID,90.5967,VALID,0,VALID,19.6248,VALID,8,VALID,0.353125,
2010-12-06, 00:49:04,VALID,914.791,VALID,0,VALID,90.4823,VALID,0,VALID,19.6248,VALID,8,VALID,0.0304688,
2010-12-06, 00:50:04,VALID,914.821,VALID,0,VALID,90.5281,VALID,0,VALID,19.6053,VALID,8,VALID,0.255859,
2010-12-06, 00:51:04,VALID,914.808,VALID,0,VALID,90.9092,VALID,0,VALID,19.5663,VALID,8,VALID,0.296875,
2010-12-06, 00:52:04,VALID,914.778,VALID,0,VALID,91.1608,VALID,0,VALID,19.5273,VALID,7,VALID,0.425391,
2010-12-06, 00:53:04,VALID,914.822,VALID,0,VALID,91.4352,VALID,0,VALID,19.5273,VALID,8,VALID,0.154687,
2010-12-06, 00:54:04,VALID,914.807,VALID,0,VALID,91.5191,VALID,0,VALID,19.5078,VALID,8,VALID,0,
2010-12-06, 00:55:04,VALID,914.811,VALID,0,VALID,91.6411,VALID,0,VALID,19.5078,VALID,8,VALID,0.677734,
2010-12-06, 00:56:04,VALID,914.799,VALID,0,VALID,91.8698,VALID,0,VALID,19.5078,VALID,8,VALID,0.610547,
2010-12-06, 00:57:04,VALID,914.804,VALID,0,VALID,92.007,VALID,0,VALID,19.4688,VALID,8,VALID,0.480078,
2010-12-06, 00:58:04,VALID,914.802,VALID,0,VALID,91.8622,VALID,0,VALID,19.4283,VALID,8,VALID,0.353125,
2010-12-06, 00:59:04,VALID,914.793,VALID,0,VALID,91.885,VALID,0,VALID,19.4298,VALID,8,VALID,0.560156,
2010-12-06, 01:00:04,VALID,914.826,VALID,0,VALID,91.8927,VALID,0,VALID,19.4313,VALID,8,VALID,0.995313,
2010-12-06, 01:01:04,VALID,914.81,VALID,0,VALID,91.8698,VALID,0,VALID,19.4103,VALID,8,VALID,0.758594,
2010-12-06, 01:02:04,VALID,914.786,VALID,0,VALID,92.0223,VALID,0,VALID,19.4103,VALID,8,VALID,0.671875,
2010-12-06, 01:03:04,VALID,914.786,VALID,0,VALID,92.2205,VALID,0,VALID,19.4298,VALID,8,VALID,0.632813,
2010-12-06, 01:04:04,VALID,914.795,VALID,0,VALID,92.2662,VALID,0,VALID,19.4103,VALID,8,VALID,0.840625,
2010-12-06, 01:05:04,VALID,914.789,VALID,0,VALID,91.9155,VALID,0,VALID,19.4103,VALID,8,VALID,1.12578,
2010-12-06, 01:06:04,VALID,914.807,VALID,0,VALID,91.664,VALID,0,VALID,19.4103,VALID,8,VALID,0.768359,
2010-12-06, 01:07:04,VALID,914.787,VALID,0,VALID,91.5039,VALID,0,VALID,19.4688,VALID,8,VALID,0.985937,
2010-12-06, 01:08:04,VALID,914.812,VALID,0,VALID,91.2752,VALID,0,VALID,19.5468,VALID,10,VALID,1.24531,
2010-12-06, 01:09:04,VALID,914.771,VALID,0,VALID,91.0846,VALID,0,VALID,19.5858,VALID,18,VALID,0.691797,
2010-12-06, 01:10:04,VALID,914.784,VALID,0,VALID,90.9702,VALID,0,VALID,19.6443,VALID,17,VALID,1.13555,
2010-12-06, 01:11:04,VALID,914.749,VALID,0,VALID,91.2218,VALID,0,VALID,19.6638,VALID,2,VALID,1.21445,
2010-12-06, 01:12:04,VALID,914.734,VALID,0,VALID,91.1227,VALID,0,VALID,19.6638,VALID,20,VALID,1.44687,
2010-12-06, 01:13:04,VALID,914.761,VALID,0,VALID,91.016,VALID,0,VALID,19.7028,VALID,16,VALID,1.16211,
2010-12-06, 01:14:04,VALID,914.748,VALID,0,VALID,90.8025,VALID,0,VALID,19.7223,VALID,15,VALID,1.25195,
2010-12-06, 01:15:04,VALID,914.735,VALID,0,VALID,90.5967,VALID,0,VALID,19.7418,VALID,22,VALID,1.325,
2010-12-06, 01:16:04,VALID,914.76,VALID,0,VALID,90.4595,VALID,0,VALID,19.7808,VALID,22,VALID,1.00469,
2010-12-06, 01:17:04,VALID,914.733,VALID,0,VALID,90.6272,VALID,0,VALID,19.7808,VALID,22,VALID,1.13359,
2010-12-06, 01:18:04,VALID,914.739,VALID,0,VALID,90.5814,VALID,0,VALID,19.8003,VALID,22,VALID,1.13906,
2010-12-06, 01:19:04,VALID,914.733,VALID,0,VALID,90.6348,VALID,0,VALID,19.8003,VALID,22,VALID,1.0125,
2010-12-06, 01:20:04,VALID,914.688,VALID,0,VALID,90.4366,VALID,0,VALID,19.8198,VALID,355,VALID,1.25937,
2010-12-06, 01:21:04,VALID,914.675,VALID,0,VALID,90.4671,VALID,0,VALID,19.8393,VALID,355,VALID,1.67109,
2010-12-06, 01:22:04,VALID,914.681,VALID,0,VALID,90.3299,VALID,0.107441,VALID,19.8588,VALID,10,VALID,1.08828,
2010-12-06, 01:23:04,VALID,914.636,VALID,0,VALID,90.185,VALID,0,VALID,19.8978,VALID,14,VALID,1.20859,
2010-12-06, 01:24:04,VALID,914.614,VALID,0,VALID,90.1926,VALID,0,VALID,19.9173,VALID,17,VALID,1.3707,
2010-12-06, 01:25:04,VALID,914.625,VALID,0,VALID,90.1621,VALID,0,VALID,19.9173,VALID,17,VALID,1.25391,
2010-12-06, 01:26:04,VALID,914.597,VALID,0,VALID,90.185,VALID,0.107441,VALID,19.9368,VALID,45,VALID,1.17031,
2010-12-06, 01:27:04,VALID,914.593,VALID,0,VALID,90.2841,VALID,0,VALID,19.9173,VALID,16,VALID,1.05352,
2010-12-06, 01:28:04,VALID,914.593,VALID,0,VALID,90.4366,VALID,0,VALID,19.8978,VALID,16,VALID,1.00703,
2010-12-06, 01:29:04,VALID,914.559,VALID,0,VALID,90.7339,VALID,0,VALID,19.8978,VALID,16,VALID,0.691016,
2010-12-06, 01:30:04,VALID,914.543,VALID,0,VALID,90.7415,VALID,0,VALID,19.8393,VALID,336,VALID,1.03125,
2010-12-06, 01:31:04,VALID,914.489,VALID,0,VALID,90.7796,VALID,0,VALID,19.8198,VALID,336,VALID,0.688281,
2010-12-06, 01:32:04,VALID,914.522,VALID,0,VALID,90.7644,VALID,0,VALID,19.8588,VALID,336,VALID,1.02969,
2010-12-06, 01:33:04,VALID,914.477,VALID,0,VALID,90.6958,VALID,0,VALID,19.8378,VALID,336,VALID,0.983203,
2010-12-06, 01:34:04,VALID,914.479,VALID,0,VALID,90.5433,VALID,0,VALID,19.8588,VALID,10,VALID,1.41719,
2010-12-06, 01:35:04,VALID,914.452,VALID,0,VALID,90.6729,VALID,0,VALID,19.8783,VALID,6,VALID,1.06367,
2010-12-06, 01:36:04,VALID,914.422,VALID,0,VALID,90.8787,VALID,0,VALID,19.8588,VALID,10,VALID,0.858203,
2010-12-06, 01:37:04,VALID,914.444,VALID,0,VALID,91.0007,VALID,0,VALID,19.8588,VALID,10,VALID,0.894922,
2010-12-06, 01:38:04,VALID,914.432,VALID,0,VALID,91.1608,VALID,0,VALID,19.8393,VALID,10,VALID,0.989062,
2010-12-06, 01:39:04,VALID,914.41,VALID,0,VALID,90.9016,VALID,0,VALID,19.8393,VALID,10,VALID,1.67891,
2010-12-06, 01:40:04,VALID,914.388,VALID,0,VALID,91.0083,VALID,0,VALID,19.8393,VALID,10,VALID,1.28008,
2010-12-06, 01:41:04,VALID,914.379,VALID,0,VALID,90.9931,VALID,0,VALID,19.8588,VALID,10,VALID,1.26953,
2010-12-06, 01:42:04,VALID,914.38,VALID,0,VALID,91.016,VALID,0,VALID,19.8393,VALID,4,VALID,1.22187,
2010-12-06, 01:43:04,VALID,914.379,VALID,0,VALID,90.8025,VALID,0,VALID,19.8798,VALID,360,VALID,1.70547,
2010-12-06, 01:44:04,VALID,914.389,VALID,0,VALID,90.7873,VALID,0,VALID,19.8588,VALID,11,VALID,1.72812,
2010-12-06, 01:45:04,VALID,914.377,VALID,0,VALID,90.9931,VALID,0,VALID,19.8588,VALID,19,VALID,1.49492,
2010-12-06, 01:46:04,VALID,914.358,VALID,0,VALID,91.0922,VALID,0,VALID,19.8588,VALID,3,VALID,1.31797,
2010-12-06, 01:47:04,VALID,914.369,VALID,0,VALID,91.0465,VALID,0,VALID,19.8588,VALID,3,VALID,1.49414,
2010-12-06, 01:48:04,VALID,914.358,VALID,0,VALID,91.2752,VALID,0,VALID,19.8588,VALID,3,VALID,1.16367,
2010-12-06, 01:49:04,VALID,914.362,VALID,0,VALID,91.1761,VALID,0,VALID,19.8588,VALID,3,VALID,1.21445,
2010-12-06, 01:50:04,VALID,914.383,VALID,0,VALID,91.1151,VALID,0,VALID,19.8588,VALID,359,VALID,1.63594,
2010-12-06, 01:51:04,VALID,914.366,VALID,0,VALID,91.2142,VALID,0,VALID,19.8588,VALID,359,VALID,1.48633,
2010-12-06, 01:52:04,VALID,914.368,VALID,0,VALID,91.1151,VALID,0,VALID,19.8393,VALID,359,VALID,1.50937,
2010-12-06, 01:53:04,VALID,914.328,VALID,0,VALID,91.2828,VALID,0,VALID,19.8588,VALID,359,VALID,0.999609,
2010-12-06, 01:54:04,VALID,914.335,VALID,0,VALID,91.2828,VALID,0,VALID,19.8393,VALID,359,VALID,1.53242,
2010-12-06, 01:55:04,VALID,914.317,VALID,0,VALID,91.2752,VALID,0,VALID,19.8393,VALID,359,VALID,1.51484,
2010-12-06, 01:56:04,VALID,914.316,VALID,0,VALID,91.2599,VALID,0,VALID,19.8378,VALID,359,VALID,1.85625,
2010-12-06, 01:57:04,VALID,914.367,VALID,0,VALID,91.2904,VALID,0,VALID,19.8393,VALID,359,VALID,0.979297,
2010-12-06, 01:58:04,VALID,914.313,VALID,0,VALID,91.4124,VALID,0,VALID,19.8393,VALID,358,VALID,1.18711,
2010-12-06, 01:59:04,VALID,914.274,VALID,0,VALID,91.5496,VALID,0.107441,VALID,19.8393,VALID,338,VALID,1.6082,
2010-12-06, 02:00:04,VALID,914.299,VALID,0,VALID,91.6411,VALID,0,VALID,19.8378,VALID,337,VALID,0.514844,
2010-12-06, 02:01:04,VALID,914.266,VALID,0,VALID,91.6411,VALID,0,VALID,19.8573,VALID,337,VALID,1.15625,
2010-12-06, 02:02:04,VALID,914.283,VALID,0,VALID,91.4657,VALID,0,VALID,19.8783,VALID,4,VALID,1.2543,
2010-12-06, 02:03:04,VALID,914.281,VALID,0,VALID,91.481,VALID,0,VALID,19.8588,VALID,359,VALID,1.09727,
2010-12-06, 02:04:04,VALID,914.286,VALID,0,VALID,91.4734,VALID,0,VALID,19.8588,VALID,356,VALID,1.22109,
2010-12-06, 02:05:04,VALID,914.293,VALID,0,VALID,91.3971,VALID,0,VALID,19.8783,VALID,3,VALID,1.11602,
2010-12-06, 02:06:04,VALID,914.26,VALID,0,VALID,91.5725,VALID,0,VALID,19.8588,VALID,355,VALID,0.857422,
2010-12-06, 02:07:04,VALID,914.255,VALID,0,VALID,91.6945,VALID,0,VALID,19.8783,VALID,351,VALID,0.905078,
2010-12-06, 02:08:04,VALID,914.25,VALID,0,VALID,91.7097,VALID,0,VALID,19.8783,VALID,351,VALID,0.7125,
2010-12-06, 02:09:04,VALID,914.262,VALID,0,VALID,91.7326,VALID,0,VALID,19.8588,VALID,352,VALID,0.520703,
2010-12-06, 02:10:04,VALID,914.251,VALID,0,VALID,91.9003,VALID,0,VALID,19.8378,VALID,350,VALID,1.06836,
2010-12-06, 02:11:04,VALID,914.216,VALID,0,VALID,92.0451,VALID,0,VALID,19.8783,VALID,353,VALID,1.54883,
2010-12-06, 02:12:04,VALID,914.228,VALID,0,VALID,91.9231,VALID,0,VALID,19.9173,VALID,339,VALID,1.02656,
2010-12-06, 02:13:04,VALID,914.223,VALID,0,VALID,91.9536,VALID,0,VALID,19.9173,VALID,351,VALID,1.44961,
2010-12-06, 02:14:04,VALID,914.194,VALID,0,VALID,91.8774,VALID,0,VALID,19.9368,VALID,6,VALID,1.49492,
2010-12-06, 02:15:04,VALID,914.217,VALID,0,VALID,91.8088,VALID,0,VALID,19.9368,VALID,16,VALID,0.778906,
2010-12-06, 02:16:04,VALID,914.21,VALID,0,VALID,91.8088,VALID,0,VALID,19.9563,VALID,16,VALID,0.543359,
2010-12-06, 02:17:04,VALID,914.173,VALID,0,VALID,91.8088,VALID,0,VALID,19.9353,VALID,16,VALID,1.42383,
2010-12-06, 02:18:04,VALID,914.17,VALID,0,VALID,91.5344,VALID,0,VALID,19.9563,VALID,16,VALID,0.977344,
2010-12-06, 02:19:04,VALID,914.166,VALID,0,VALID,91.5344,VALID,0,VALID,19.9953,VALID,16,VALID,0.64375,
2010-12-06, 02:20:04,VALID,914.164,VALID,0,VALID,91.5115,VALID,0,VALID,19.9758,VALID,16,VALID,0.271094,
2010-12-06, 02:21:04,VALID,914.135,VALID,0,VALID,91.5115,VALID,0,VALID,19.9758,VALID,16,VALID,1.02617,
2010-12-06, 02:22:04,VALID,914.119,VALID,0,VALID,91.5496,VALID,0,VALID,19.9563,VALID,16,VALID,0.746094,
2010-12-06, 02:23:04,VALID,914.132,VALID,0,VALID,91.6868,VALID,0,VALID,19.9368,VALID,16,VALID,0.51875,
2010-12-06, 02:24:04,VALID,914.136,VALID,0,VALID,91.7097,VALID,0,VALID,19.9173,VALID,16,VALID,0.667188,
2010-12-06, 02:25:04,VALID,914.114,VALID,0,VALID,91.7631,VALID,0,VALID,19.8978,VALID,16,VALID,0.475781,
2010-12-06, 02:26:04,VALID,914.132,VALID,0,VALID,92.0146,VALID,0,VALID,19.8978,VALID,15,VALID,1.14844,
2010-12-06, 02:27:04,VALID,914.121,VALID,0,VALID,91.9841,VALID,0,VALID,19.8978,VALID,15,VALID,0.719141,
2010-12-06, 02:28:04,VALID,914.103,VALID,0,VALID,91.9841,VALID,0,VALID,19.8978,VALID,15,VALID,0.362109,
2010-12-06, 02:29:04,VALID,914.073,VALID,0,VALID,92.0451,VALID,0,VALID,19.8783,VALID,15,VALID,0.351563,
2010-12-06, 02:30:04,VALID,914.043,VALID,0,VALID,92.1061,VALID,0,VALID,19.8978,VALID,15,VALID,0.558594,
2010-12-06, 02:31:04,VALID,914.013,VALID,0,VALID,92.0985,VALID,0,VALID,19.8768,VALID,15,VALID,0.498828,
2010-12-06, 02:32:04,VALID,914.001,VALID,0,VALID,92.2128,VALID,0,VALID,19.8783,VALID,15,VALID,0.558594,
2010-12-06, 02:33:04,VALID,913.959,VALID,0,VALID,92.2433,VALID,0,VALID,19.8783,VALID,15,VALID,0.825391,
2010-12-06, 02:34:04,VALID,913.946,VALID,0,VALID,92.3119,VALID,0,VALID,19.8783,VALID,15,VALID,0.705078,
2010-12-06, 02:35:04,VALID,913.927,VALID,0,VALID,92.1747,VALID,0,VALID,19.8783,VALID,15,VALID,1.03242,
2010-12-06, 02:36:04,VALID,913.903,VALID,0,VALID,92.2205,VALID,0,VALID,19.8978,VALID,15,VALID,0.885547,
2010-12-06, 02:37:04,VALID,913.902,VALID,0,VALID,92.2891,VALID,0,VALID,19.8588,VALID,15,VALID,0.773828,
2010-12-06, 02:38:04,VALID,913.918,VALID,0,VALID,92.4492,VALID,0,VALID,19.8393,VALID,15,VALID,1.12422,
2010-12-06, 02:39:04,VALID,913.876,VALID,0,VALID,92.533,VALID,0,VALID,19.8393,VALID,5,VALID,1.36328,
2010-12-06, 02:40:04,VALID,913.852,VALID,0,VALID,92.5178,VALID,0,VALID,19.8393,VALID,357,VALID,0.871484,
2010-12-06, 02:41:04,VALID,913.87,VALID,0,VALID,92.5406,VALID,0,VALID,19.8393,VALID,357,VALID,1.4125,
2010-12-06, 02:42:04,VALID,913.883,VALID,0,VALID,92.6093,VALID,0,VALID,19.8588,VALID,357,VALID,0.907812,
2010-12-06, 02:43:04,VALID,913.864,VALID,0,VALID,92.7617,VALID,0,VALID,19.8183,VALID,357,VALID,1.44297,
2010-12-06, 02:44:04,VALID,913.859,VALID,0,VALID,92.7922,VALID,0,VALID,19.8003,VALID,357,VALID,0.76875,
2010-12-06, 02:45:04,VALID,913.861,VALID,0,VALID,92.8456,VALID,0,VALID,19.8198,VALID,357,VALID,0.635156,
2010-12-06, 02:46:04,VALID,913.813,VALID,0,VALID,92.7007,VALID,0,VALID,19.8393,VALID,358,VALID,1.67539,
2010-12-06, 02:47:04,VALID,913.822,VALID,0,VALID,92.6474,VALID,0,VALID,19.8198,VALID,27,VALID,1.07734,
2010-12-06, 02:48:04,VALID,913.815,VALID,0,VALID,92.5025,VALID,0,VALID,19.8003,VALID,27,VALID,0.860156,
2010-12-06, 02:49:04,VALID,913.826,VALID,0,VALID,92.3729,VALID,0,VALID,19.8003,VALID,27,VALID,0.642187,
2010-12-06, 02:50:04,VALID,913.802,VALID,0,VALID,92.6626,VALID,0,VALID,19.7418,VALID,27,VALID,0.629687,
2010-12-06, 02:51:04,VALID,913.782,VALID,0,VALID,92.9828,VALID,0.107441,VALID,19.7208,VALID,27,VALID,0.290234,
2010-12-06, 02:52:04,VALID,913.769,VALID,0,VALID,92.9904,VALID,0,VALID,19.6833,VALID,27,VALID,0.126563,
2010-12-06, 02:53:04,VALID,913.775,VALID,0,VALID,93.3106,VALID,0,VALID,19.6638,VALID,27,VALID,0.521094,
2010-12-06, 02:54:04,VALID,913.75,VALID,0,VALID,93.4173,VALID,0,VALID,19.6248,VALID,27,VALID,0.352734,
2010-12-06, 02:55:04,VALID,913.755,VALID,0,VALID,93.6003,VALID,0,VALID,19.6038,VALID,27,VALID,0.320313,
2010-12-06, 02:56:04,VALID,913.74,VALID,0,VALID,93.6155,VALID,0,VALID,19.6053,VALID,27,VALID,0.3375,
2010-12-06, 02:57:04,VALID,913.724,VALID,0,VALID,93.9738,VALID,0,VALID,19.6443,VALID,341,VALID,1.62305,
2010-12-06, 02:58:04,VALID,913.707,VALID,0,VALID,93.9815,VALID,0,VALID,19.6053,VALID,345,VALID,0.520312,
2010-12-06, 02:59:04,VALID,913.712,VALID,0,VALID,93.9281,VALID,0,VALID,19.6248,VALID,345,VALID,0.427344,
2010-12-06, 03:00:04,VALID,913.72,VALID,0,VALID,93.8366,VALID,0,VALID,19.6638,VALID,345,VALID,0.557031,
2010-12-06, 03:01:04,VALID,913.721,VALID,0,VALID,93.7147,VALID,0,VALID,19.6233,VALID,345,VALID,0.244531,
2010-12-06, 03:02:04,VALID,913.741,VALID,0,VALID,93.6079,VALID,0,VALID,19.6428,VALID,345,VALID,0.0625,
2010-12-06, 03:03:04,VALID,913.709,VALID,0,VALID,93.6232,VALID,0,VALID,19.6053,VALID,345,VALID,0.449219,
2010-12-06, 03:04:04,VALID,913.708,VALID,0,VALID,93.9052,VALID,0,VALID,19.6053,VALID,345,VALID,0.205469,
2010-12-06, 03:05:04,VALID,913.732,VALID,0,VALID,93.7985,VALID,0,VALID,19.6248,VALID,345,VALID,0.343359,
2010-12-06, 03:06:04,VALID,913.695,VALID,0,VALID,93.6918,VALID,0.107441,VALID,19.5858,VALID,345,VALID,0.216406,
2010-12-06, 03:07:04,VALID,913.7,VALID,0,VALID,93.7985,VALID,0,VALID,19.5663,VALID,345,VALID,0.369531,
2010-12-06, 03:08:04,VALID,913.663,VALID,0,VALID,93.9281,VALID,0,VALID,19.5663,VALID,345,VALID,0.236328,
2010-12-06, 03:09:04,VALID,913.674,VALID,0,VALID,94.0653,VALID,0,VALID,19.5663,VALID,345,VALID,0.122266,
2010-12-06, 03:10:04,VALID,913.684,VALID,0,VALID,94.0348,VALID,0,VALID,19.5663,VALID,345,VALID,0.185937,
2010-12-06, 03:11:04,VALID,913.665,VALID,0,VALID,94.0806,VALID,0,VALID,19.5468,VALID,345,VALID,0,
2010-12-06, 03:12:04,VALID,913.671,VALID,0,VALID,94.0196,VALID,0,VALID,19.5258,VALID,345,VALID,0,
2010-12-06, 03:13:04,VALID,913.649,VALID,0,VALID,93.9205,VALID,0.107441,VALID,19.5078,VALID,345,VALID,0,
2010-12-06, 03:14:04,VALID,913.683,VALID,0,VALID,93.8976,VALID,0.107441,VALID,19.5078,VALID,345,VALID,0,
2010-12-06, 03:15:04,VALID,913.677,VALID,0,VALID,93.5469,VALID,0,VALID,19.4688,VALID,345,VALID,0,
2010-12-06, 03:16:04,VALID,913.677,VALID,0,VALID,93.7223,VALID,0,VALID,19.4298,VALID,345,VALID,0,
2010-12-06, 03:17:04,VALID,913.666,VALID,0,VALID,94.3093,VALID,0,VALID,19.4688,VALID,345,VALID,0.0535156,
2010-12-06, 03:18:04,VALID,913.665,VALID,0,VALID,94.0501,VALID,0,VALID,19.4298,VALID,345,VALID,0.278906,
2010-12-06, 03:19:04,VALID,913.659,VALID,0,VALID,93.8671,VALID,0,VALID,19.3908,VALID,345,VALID,0.170312,
2010-12-06, 03:20:04,VALID,913.661,VALID,0,VALID,94.4389,VALID,0,VALID,19.4103,VALID,345,VALID,0.178906,
2010-12-06, 03:21:04,VALID,913.671,VALID,0,VALID,94.5304,VALID,0,VALID,19.3908,VALID,345,VALID,0,
2010-12-06, 03:22:04,VALID,913.652,VALID,0,VALID,94.5837,VALID,0,VALID,19.3908,VALID,345,VALID,0,
2010-12-06, 03:23:04,VALID,913.65,VALID,0,VALID,94.4999,VALID,0,VALID,19.3518,VALID,345,VALID,0,
2010-12-06, 03:24:04,VALID,913.599,VALID,0,VALID,94.4694,VALID,0,VALID,19.3323,VALID,345,VALID,0,
2010-12-06, 03:25:04,VALID,913.587,VALID,0,VALID,94.82,VALID,0,VALID,19.3518,VALID,345,VALID,0,
2010-12-06, 03:26:04,VALID,913.604,VALID,0,VALID,94.9344,VALID,0,VALID,19.3713,VALID,345,VALID,0,
2010-12-06, 03:27:04,VALID,913.558,VALID,0,VALID,94.6905,VALID,0,VALID,19.3128,VALID,345,VALID,0,
2010-12-06, 03:28:04,VALID,913.561,VALID,0,VALID,94.9344,VALID,0,VALID,19.3518,VALID,345,VALID,0,
2010-12-06, 03:29:04,VALID,913.575,VALID,0,VALID,95.0792,VALID,0,VALID,19.3713,VALID,345,VALID,0,
2010-12-06, 03:30:04,VALID,913.553,VALID,0,VALID,95.1174,VALID,0,VALID,19.3713,VALID,345,VALID,0,
2010-12-06, 03:31:04,VALID,913.572,VALID,0,VALID,95.0488,VALID,0,VALID,19.3923,VALID,345,VALID,0,
2010-12-06, 03:32:04,VALID,913.571,VALID,0,VALID,94.9192,VALID,0,VALID,19.3323,VALID,345,VALID,0,
2010-12-06, 03:33:04,VALID,913.594,VALID,0,VALID,94.7896,VALID,0,VALID,19.3338,VALID,345,VALID,0,
2010-12-06, 03:34:04,VALID,913.608,VALID,0,VALID,94.7591,VALID,0,VALID,19.3128,VALID,345,VALID,0.254687,
2010-12-06, 03:35:04,VALID,913.62,VALID,0,VALID,94.599,VALID,0,VALID,19.2738,VALID,345,VALID,0.297266,
2010-12-06, 03:36:04,VALID,913.638,VALID,0,VALID,94.8353,VALID,0.107441,VALID,19.2348,VALID,345,VALID,0.458203,
2010-12-06, 03:37:04,VALID,913.644,VALID,0,VALID,94.9954,VALID,0,VALID,19.2153,VALID,345,VALID,0.451172,
2010-12-06, 03:38:04,VALID,913.669,VALID,0,VALID,95.2088,VALID,0,VALID,19.2348,VALID,345,VALID,0.312109,
2010-12-06, 03:39:04,VALID,913.669,VALID,0,VALID,95.3766,VALID,0,VALID,19.2543,VALID,345,VALID,0.188281,
2010-12-06, 03:40:04,VALID,913.692,VALID,0,VALID,95.4757,VALID,0.107441,VALID,19.2543,VALID,345,VALID,0.0339844,
2010-12-06, 03:41:04,VALID,913.68,VALID,0,VALID,95.651,VALID,0,VALID,19.2933,VALID,345,VALID,0.445313,
2010-12-06, 03:42:04,VALID,913.687,VALID,0,VALID,95.7425,VALID,0,VALID,19.3518,VALID,345,VALID,0.398438,
2010-12-06, 03:43:04,VALID,913.681,VALID,0,VALID,95.7196,VALID,0,VALID,19.4118,VALID,345,VALID,0.187109,
2010-12-06, 03:44:04,VALID,913.705,VALID,0,VALID,95.4909,VALID,0,VALID,19.3908,VALID,345,VALID,0,
2010-12-06, 03:45:04,VALID,913.677,VALID,0,VALID,95.3384,VALID,0,VALID,19.4103,VALID,345,VALID,0.0566406,
2010-12-06, 03:46:04,VALID,913.644,VALID,0,VALID,95.1402,VALID,0,VALID,19.3908,VALID,345,VALID,0.140625,
2010-12-06, 03:47:04,VALID,913.642,VALID,0,VALID,95.2241,VALID,0,VALID,19.4493,VALID,345,VALID,0.212891,
2010-12-06, 03:48:04,VALID,913.639,VALID,0,VALID,95.2165,VALID,0,VALID,19.4493,VALID,345,VALID,0,
2010-12-06, 03:49:04,VALID,913.628,VALID,0,VALID,95.1555,VALID,0,VALID,19.4883,VALID,345,VALID,0,